St. Johns, AZ

1:29 AM MST on May 22, 2018 (GMT -0700)
Saint Johns Industrial

Weather History for KSJN - January, 2014

Change the Weather History Date:

Sunday, January 5, 2014

  Actual Average (KLSB) Record (KLSB)
Temperature  
Mean Temperature 24 °F -  
Max Temperature 39 °F 55 °F 57 °F (2015)
Min Temperature 10 °F 24 °F 17 °F (2013)
Degree Days  
Heating Degree Days 40    
Moisture  
Dew Point -4 °F    
Average Humidity 32    
Maximum Humidity 64    
Minimum Humidity 10    
Precipitation  
Precipitation 0.00 in - - ()
Sea Level Pressure  
Sea Level Pressure 30.25 in    
Wind  
Wind Speed 4 mph (SW)    
Max Wind Speed 9 mph    
Max Gust Speed -    
Visibility 10 miles    
Events      
Averages and records for this station are not official NWS values.
T = Trace of Precipitation, MM = Missing Value Source: NWS Daily Summary

Daily Weather History Graph

Daily Weather History Graph

Search for Another Location

Airport or City:

Astronomy

Jan. 05, 2014 Rise Set
Actual Time 7:24 AM MST 5:21 PM MST
Civil Twilight 6:57 AM MST 5:49 PM MST
Nautical Twilight 6:25 AM MST 6:20 PM MST
Astronomical Twilight 5:55 AM MST 6:50 PM MST
Moon 10:21 AM MST (1/5) 10:38 PM MST (1/5)
Length of Visible Light 10h 52m
Length of Day
9h 56m
Waxing Crescent, 25% of the Moon is Illuminated
Jan 5
Waxing Crescent
Jan 7
First Quarter
Jan 15
Full
Jan 23
Last Quarter
Jan 30
New

Hourly Weather History & Observations

Time (MST) Temp. Windchill Dew Point Humidity Pressure Visibility Wind Dir Wind Speed Gust Speed Precip Events Conditions
12:54 AM 21.9 °F 15.7 °F 3.9 °F 46% 30.07 in 10.0 mi WSW 4.6 mph - N/A   Clear
1:54 AM 21.0 °F 14.6 °F 1.9 °F 44% 30.06 in 10.0 mi SSE 4.6 mph - N/A   Clear
2:54 AM 17.1 °F 11.7 °F 1.9 °F 52% 30.09 in 10.0 mi South 3.5 mph - N/A   Clear
3:54 AM 15.1 °F - 1.0 °F 54% 30.11 in 10.0 mi Calm Calm - N/A   Clear
4:54 AM 12.0 °F - -0.0 °F 59% 30.14 in 10.0 mi Calm Calm - N/A   Clear
5:54 AM 10.9 °F 1.4 °F -0.0 °F 61% 30.17 in 10.0 mi South 5.8 mph - N/A   Clear
6:54 AM 14.0 °F 5.1 °F 3.9 °F 64% 30.19 in 10.0 mi SSE 5.8 mph - N/A   Clear
7:54 AM 16.0 °F 10.4 °F 5.0 °F 62% 30.26 in 10.0 mi South 3.5 mph - N/A   Clear
8:54 AM 21.9 °F - 5.0 °F 48% 30.28 in 10.0 mi Calm Calm - N/A   Clear
9:54 AM 28.9 °F 25.2 °F 8.1 °F 41% 30.29 in 10.0 mi NNE 3.5 mph - N/A   Clear
10:54 AM 33.1 °F 30.0 °F -7.1 °F 18% 30.27 in 10.0 mi Variable 3.5 mph - N/A   Clear
11:54 AM 34.0 °F 31.0 °F -7.1 °F 17% 30.25 in 10.0 mi Variable 3.5 mph - N/A   Clear
12:54 PM 36.0 °F 31.1 °F -9.0 °F 14% 30.24 in 10.0 mi NW 5.8 mph - N/A   Clear
1:54 PM 37.9 °F 32.7 °F -9.9 °F 13% 30.22 in 10.0 mi NW 6.9 mph - N/A   Clear
2:54 PM 39.0 °F 32.8 °F -11.0 °F 12% 30.23 in 10.0 mi WNW 9.2 mph - N/A   Clear
3:54 PM 39.0 °F 32.8 °F -11.0 °F 12% 30.24 in 10.0 mi West 9.2 mph - N/A   Clear
4:54 PM 37.0 °F 31.0 °F -11.0 °F 13% 30.28 in 10.0 mi WNW 8.1 mph - N/A   Clear
5:54 PM 26.1 °F 19.4 °F -9.9 °F 20% 30.35 in 10.0 mi WNW 5.8 mph - N/A   Clear
6:54 PM 25.0 °F 19.3 °F -9.9 °F 21% 30.34 in 10.0 mi WSW 4.6 mph - N/A   Clear
7:54 PM 24.1 °F 19.7 °F -9.0 °F 23% 30.36 in 10.0 mi ESE 3.5 mph - N/A   Clear
8:54 PM 19.0 °F - -8.0 °F 30% 30.38 in 5.0 mi Calm Calm - N/A   Haze
9:54 PM 17.1 °F 10.0 °F -7.1 °F 34% 30.38 in 9.0 mi South 4.6 mph - N/A   Clear
10:54 PM 17.1 °F 11.7 °F -6.0 °F 36% 30.38 in 10.0 mi South 3.5 mph - N/A   Clear
11:54 PM 17.1 °F - -5.1 °F 37% 30.37 in 10.0 mi Calm Calm - N/A   Clear